星链-31076 (STARLINK-31076 )

导读

STARLINK-31076是美国SpaceX星链星座的成员,于2024年1月7日发射入轨。星链项目旨在构建全球卫星互联网星座,为全球偏远地区及网络基础设施薄弱区域提供高速宽带服务。该卫星继承星链技术路线,承担低轨通信组网任务,为全球网络覆盖和连通性提供支撑,助力SpaceX完成星链星座的部署计划。

Basic Information
目录编号:
58736
目录名称:
STARLINK-31076
国际标识:
2024-005J
轨道中心:
EARTH
卫星名称:
星链-31076
卫星全名:
星链-31076 (STARLINK-31076 )
卫星状态:
在轨 (已飞行978 天)
发射日期:
2024-01-07 UTC
国别 :
美国 (US)
星等 :
--
This satellite is enrolled in the Space Conjunction Data Service (SCDS) and the current flight risk assessment level is: No High Risk
Orbit Information
数据来源 国际轨道数据 AOE轨道数据
星历时间 2026-09-11T09:04:50+0800
17小时前
查看轨道信息
2026-09-06T08:00:00+0800
5天前
查看轨道信息
半长轴 6861.207km 6861.163km
偏心率 0.0001139 0.0000062
轨道倾角 43.003° 42.995°
近地点辐角 273.827° 221.126°
升交点赤经 252.765° 281.255°
平近点角 86.245° 82.439°
近地点 482.288km 482.983km
远地点 483.852km 483.069km
周期 94.267分钟 94.266分钟
每日圈数 15.275732 15.275879
Detailed Information
固有亮度:
5
最大亮度:
0.3
卫星平台:
Starlink v2.0 mini
覆盖范围:
全球
运营商:
太空探索技术公司
运营商所在国:
美国
制造商(研发单位):
太空探索技术公司
制造商所在国:
美国
使用方式:
暂无
Satellite Introduction
星链(Starlink)计划是由太空探索技术公司(SpaceX)提出的一个巨型低轨卫星互联网星座项目,计划在2019年至2024年间在太空搭建由约1.2万颗卫星组成的“星链”网络,其中1584颗将部署在地球上空550千米处的近地轨道,并从2020年开始工作。该卫星仍在工作。
2D Orbit Map
3D Orbit Map
Orbit Altitude Analysis Chart
Orbit Inclination Analysis Chart
Orbit Comprehensive Analysis Chart
View Comprehensive Chart
Miss Distance Evolution Trend with All Objects
Collision Probability Evolution Trend with All Objects